"startDT [UTC]","vpos","CH4 [ppm]","stdev(CH4) [ppm]","CO2 [ppm]","stdev(CO2) [ppm]","H2O_reported [%]","stdev(H2O_reported)","CavityPressure [torr]","CavityTemp [C]","OutletValve","CH4_dry [ppm]","CO2_dry [ppm]","DasTemp [C]","EtalonTemp [C]","WarmBoxTemp [C]","MPVPosition","T_ECpre [C]","T_EC1 [C]","T_EC2 [C]","p_inlet [hPa]","p_in [hPa]","p_out [hPa]","T_inlet [C]","RH_inlet [%]","dwpt_inlet [C]","T_vent [C]","RH_vent [%]","dwpt_vent [C]","flow_vent [l min-1]","flow_inlet [l min-1]","dwpt_sample [C]","T_room [C]"
2015-07-31 00:00:00,0.0,1.88132,0.00037,385.156,0.191,0.8880,0.0045,139.999,45.000,34442.26348,1.89827,389.398,32.457,45.068,45.000,0.00,0.10,-272.73,-272.79,-7,998,-5,23.0,24.9,1.8,22.7,25.5,1.9,5.73,1.88,2.3,27.0
2015-07-31 00:01:00,0.0,1.88086,0.00033,384.831,0.256,0.8983,0.0065,140.000,45.000,34441.83020,1.89796,389.093,32.465,45.068,45.000,0.00,0.10,-272.73,-272.80,-7,998,-5,23.0,25.2,2.0,22.7,25.8,2.1,5.73,1.91,2.3,27.1
2015-07-31 00:02:00,0.0,1.88037,0.00031,385.070,0.102,0.9128,0.0040,140.001,45.000,34443.86369,1.89777,389.429,32.451,45.068,45.000,0.00,0.10,-272.73,-272.79,-7,998,-4,23.0,25.6,2.2,22.7,26.3,2.4,5.73,2.01,2.3,27.1
2015-07-31 00:03:00,0.0,1.88032,0.00035,385.318,0.160,0.9054,0.0030,139.998,45.000,34443.08951,1.89758,389.632,32.447,45.068,45.000,0.00,0.10,-272.73,-272.79,-7,999,-5,23.0,25.3,2.1,22.7,26.1,2.3,5.73,2.01,2.3,27.1
2015-07-31 00:04:00,0.0,1.88054,0.00043,385.147,0.107,0.8982,0.0027,140.003,45.000,34443.27116,1.89764,389.431,32.445,45.068,45.000,0.00,0.10,-272.74,-272.79,-7,998,-4,23.0,25.2,2.0,22.7,25.9,2.2,5.73,1.92,2.3,27.1
2015-07-31 00:05:00,0.0,1.88063,0.00057,385.260,0.098,0.9023,0.0021,140.002,45.000,34445.67204,1.89775,389.557,32.441,45.068,45.000,0.00,0.10,-272.73,-272.79,-7,998,-4,23.0,25.2,2.0,22.7,26.0,2.2,5.73,1.87,2.3,27.1
2015-07-31 00:06:00,0.0,1.88081,0.00048,385.372,0.072,0.8921,0.0042,140.002,45.000,34447.97333,1.89783,389.630,32.438,45.068,45.000,0.00,0.10,-272.73,-272.79,-6,999,-5,23.0,24.9,1.9,22.7,25.8,2.1,5.73,1.94,2.3,27.1
2015-07-31 00:07:00,0.0,1.88081,0.00032,385.265,0.161,0.8871,0.0026,140.001,45.000,34446.74335,1.89770,389.503,32.439,45.068,45.000,0.00,0.10,-272.73,-272.79,-7,998,-4,23.0,24.8,1.8,22.7,25.5,2.0,5.73,2.02,2.3,27.1
2015-07-31 00:08:00,0.0,1.88024,0.00046,384.969,0.230,0.8984,0.0053,140.002,45.000,34446.52778,1.89742,389.254,32.447,45.068,45.000,0.00,0.10,-272.73,-272.80,-7,998,-4,23.0,25.1,2.0,22.7,25.7,2.1,5.73,1.99,2.3,27.1
2015-07-31 00:09:00,0.0,1.87972,0.00050,384.780,0.105,0.9157,0.0054,139.999,45.000,34447.89305,1.89713,389.146,32.445,45.068,45.000,0.00,0.10,-272.72,-272.79,-7,998,-5,23.0,25.7,2.3,22.7,26.3,2.4,5.73,1.89,2.3,27.1
2015-07-31 00:10:00,0.0,1.87956,0.00035,384.657,0.130,0.9296,0.0051,140.004,45.000,34449.33823,1.89725,389.083,32.446,45.068,45.000,0.00,0.10,-272.73,-272.79,-7,999,-5,23.0,26.1,2.5,22.7,26.8,2.6,5.73,1.89,2.3,27.1
2015-07-31 00:11:00,0.0,1.87922,0.00036,384.743,0.193,0.9385,0.0025,139.999,45.000,34447.78839,1.89712,389.200,32.441,45.068,45.000,0.00,0.10,-272.73,-272.80,-5,998,-4,23.0,26.4,2.7,22.7,27.1,2.8,5.73,1.98,2.3,27.1
2015-07-31 00:12:00,0.0,1.87919,0.00038,385.016,0.094,0.9409,0.0020,139.997,45.000,34446.71421,1.89715,389.509,32.449,45.068,45.000,0.00,0.10,-272.73,-272.80,-8,999,-5,23.0,26.4,2.7,22.7,27.2,2.9,5.73,2.02,2.3,27.1
2015-07-31 00:13:00,0.0,1.87902,0.00035,385.165,0.117,0.9328,0.0040,140.000,45.000,34447.38948,1.89677,389.618,32.449,45.068,45.000,0.00,0.10,-272.73,-272.79,-4,999,-5,23.0,26.1,2.5,22.7,27.0,2.8,5.73,1.95,2.3,27.1
2015-07-31 00:14:00,0.0,1.87952,0.00039,385.123,0.078,0.9265,0.0031,139.998,45.000,34447.01467,1.89714,389.542,32.440,45.068,45.000,0.00,0.10,-272.73,-272.79,-6,999,-6,23.0,25.9,2.4,22.8,26.7,2.6,5.73,1.87,2.3,27.1
2015-07-31 00:15:00,0.0,1.87951,0.00036,384.832,0.133,0.9246,0.0025,139.996,45.000,34447.85223,1.89713,389.251,32.460,45.068,45.000,0.00,0.10,-272.74,-272.79,-6,999,-3,23.0,25.9,2.4,22.8,26.7,2.6,5.73,1.91,2.3,27.1
2015-07-31 00:16:00,0.0,1.87912,0.00040,384.752,0.164,0.9316,0.0035,139.999,45.000,34450.02321,1.89686,389.187,32.447,45.068,45.000,0.00,0.10,-272.73,-272.79,-6,998,-4,23.0,26.2,2.5,22.8,26.8,2.7,5.73,2.01,2.3,27.1
2015-07-31 00:17:00,0.0,1.87899,0.00042,384.874,0.117,0.9422,0.0024,140.000,45.000,34450.54510,1.89699,389.369,32.448,45.068,45.000,0.00,0.10,-272.73,-272.79,-5,999,-6,23.0,26.5,2.7,22.7,27.2,2.8,5.73,2.01,2.3,27.1
2015-07-31 00:18:00,0.0,1.87865,0.00032,384.677,0.188,0.9472,0.0023,139.999,45.000,34448.37068,1.89667,389.187,32.447,45.068,45.000,0.00,0.10,-272.73,-272.80,-7,998,-4,23.0,26.6,2.8,22.8,27.4,3.0,5.73,1.92,2.3,27.0
2015-07-31 00:19:00,0.0,1.87892,0.00042,384.963,0.100,0.9484,0.0023,140.002,45.000,34447.40866,1.89702,389.494,32.465,45.068,45.000,0.00,0.10,-272.73,-272.78,-9,998,-4,23.0,26.7,2.8,22.8,27.4,3.0,5.73,1.88,2.3,27.1
2015-07-31 00:20:00,0.0,1.87897,0.00031,384.882,0.116,0.9530,0.0024,139.999,45.000,34447.01193,1.89714,389.434,32.473,45.068,45.000,0.00,0.10,-272.72,-272.79,-4,998,-7,23.0,26.7,2.8,22.8,27.5,3.1,5.73,1.96,2.3,27.1
2015-07-31 00:21:00,0.0,1.87903,0.00035,384.820,0.089,0.9488,0.0022,139.997,45.000,34448.27257,1.89709,389.345,32.467,45.068,45.000,0.00,0.10,-272.73,-272.80,-8,999,-5,23.0,26.6,2.8,22.8,27.4,3.0,5.73,2.02,2.3,27.1
2015-07-31 00:22:00,0.0,1.87927,0.00045,384.998,0.102,0.9434,0.0023,140.001,45.000,34449.44289,1.89720,389.498,32.484,45.068,45.000,0.00,0.10,-272.73,-272.80,-4,998,-4,23.0,26.4,2.7,22.8,27.3,2.9,5.73,1.98,2.3,27.0
2015-07-31 00:23:00,0.0,1.87934,0.00028,384.863,0.131,0.9352,0.0042,140.000,45.000,34449.33057,1.89720,389.333,32.483,45.068,45.000,0.00,0.10,-272.72,-272.79,-5,1000,2,23.0,26.2,2.5,22.8,27.0,2.8,5.73,1.89,2.3,27.1
2015-07-31 00:24:00,0.0,1.87961,0.00041,384.850,0.096,0.9263,0.0023,139.998,45.000,34448.04784,1.89724,389.262,32.477,45.068,45.000,0.00,0.10,-272.73,-272.79,-6,999,-7,23.0,25.9,2.4,22.8,26.7,2.6,5.73,1.90,2.3,27.0
2015-07-31 00:25:00,0.0,1.87972,0.00034,385.169,0.200,0.9275,0.0016,139.996,45.000,34447.45359,1.89740,389.584,32.443,45.068,45.000,0.00,0.10,-272.74,-272.80,-7,999,-5,23.0,26.0,2.5,22.8,26.7,2.7,5.73,1.99,2.4,27.1
2015-07-31 00:26:00,0.0,1.87986,0.00038,385.114,0.160,0.9225,0.0068,140.000,45.000,34446.45583,1.89741,389.536,32.463,45.068,45.000,0.00,0.10,-272.73,-272.79,-7,999,-3,23.0,25.7,2.3,22.8,26.6,2.6,5.73,2.01,2.3,27.1
2015-07-31 00:27:00,0.0,1.88062,0.00043,384.963,0.123,0.9094,0.0027,140.003,45.000,34447.94981,1.89794,389.291,32.463,45.068,45.000,0.00,0.10,-272.73,-272.78,-8,998,-4,23.0,25.4,2.1,22.8,26.2,2.4,5.73,1.94,2.3,27.1
2015-07-31 00:28:00,0.0,1.87996,0.00059,384.652,0.236,0.9125,0.0022,140.000,45.000,34447.82705,1.89738,389.006,32.452,45.068,45.000,0.00,0.10,-272.74,-272.79,-6,999,-5,23.0,25.5,2.2,22.8,26.3,2.4,5.73,1.88,2.3,27.1
2015-07-31 00:29:00,0.0,1.88008,0.00050,385.160,0.117,0.9241,0.0055,139.998,45.000,34444.54718,1.89763,389.552,32.454,45.068,45.000,0.00,0.10,-272.73,-272.79,-7,998,-2,23.0,25.9,2.4,22.8,26.5,2.6,5.73,1.93,2.3,27.0
2015-07-31 00:30:00,0.0,1.88059,0.00033,385.294,0.143,0.9063,0.0112,140.000,45.000,34445.82309,1.89793,389.623,32.442,45.068,45.000,0.00,0.10,-272.72,-272.79,-7,1004,-5,23.0,25.2,2.0,22.8,26.2,2.4,5.73,2.01,2.3,27.1
2015-07-31 00:31:00,0.0,1.88100,0.00035,385.330,0.131,0.8828,0.0055,140.004,45.000,34445.75067,1.89772,389.532,32.442,45.068,45.000,0.00,0.10,-272.73,-272.79,-7,1000,-5,23.0,24.6,1.7,22.8,25.4,2.0,5.73,2.00,2.3,27.0
2015-07-31 00:32:00,0.0,1.88098,0.00040,385.345,0.082,0.8871,0.0021,140.000,45.000,34444.01068,1.89788,389.571,32.440,45.068,45.000,0.00,0.10,-272.73,-272.79,-6,999,-5,23.0,24.8,1.8,22.8,25.4,2.0,5.73,1.90,2.4,27.0
2015-07-31 00:33:00,0.0,1.88090,0.00037,385.233,0.115,0.8921,0.0023,140.004,45.000,34447.48991,1.89792,389.493,32.442,45.068,45.000,0.00,0.10,-272.73,-272.78,-7,995,-5,23.0,24.9,1.9,22.8,25.6,2.0,5.73,1.89,2.4,27.1
2015-07-31 00:34:00,0.0,1.88097,0.00026,385.038,0.085,0.8994,0.0029,140.002,45.000,34447.23610,1.89808,389.326,32.439,45.068,45.000,0.00,0.10,-272.73,-272.79,-7,997,-5,23.0,25.1,2.0,22.8,25.8,2.2,5.73,1.97,2.3,27.1
2015-07-31 00:35:00,0.0,1.88100,0.00031,385.001,0.112,0.9067,0.0025,139.996,45.000,34446.53395,1.89826,389.324,32.443,45.068,45.000,0.00,0.10,-272.73,-272.80,-6,998,-5,23.0,25.3,2.1,22.8,26.0,2.3,5.73,2.02,2.3,27.1
2015-07-31 00:36:00,0.0,1.88109,0.00037,384.872,0.070,0.9105,0.0017,140.000,45.000,34446.50551,1.89838,389.205,32.440,45.068,45.000,0.00,0.10,-272.72,-272.79,-7,997,-5,23.0,25.5,2.2,22.8,26.2,2.4,5.73,1.96,2.4,27.1
2015-07-31 00:37:00,0.0,1.88121,0.00050,385.003,0.192,0.9167,0.0025,140.001,45.000,34447.70510,1.89873,389.368,32.454,45.068,45.000,0.00,0.10,-272.72,-272.79,-7,997,-5,23.0,25.6,2.3,22.8,26.4,2.5,5.73,1.89,2.4,27.1
2015-07-31 00:38:00,0.0,1.88176,0.00040,385.192,0.079,0.9059,0.0058,140.000,45.000,34446.24596,1.89897,389.514,32.471,45.068,45.000,0.00,0.10,-272.73,-272.80,-6,998,-4,23.0,25.2,2.0,22.8,26.1,2.3,5.73,1.91,2.4,27.1
2015-07-31 00:39:00,0.0,1.88209,0.00048,384.923,0.330,0.8940,0.0018,140.000,45.000,34446.02440,1.89912,389.209,32.475,45.068,45.000,0.00,0.10,-272.74,-272.79,-6,999,-4,23.0,24.9,1.9,22.8,25.7,2.1,5.73,2.00,2.4,27.1
2015-07-31 00:40:00,0.0,1.88232,0.00044,384.596,0.254,0.9033,0.0081,139.999,45.000,34444.52321,1.89956,388.886,32.450,45.068,45.000,0.00,0.10,-272.73,-272.79,-7,998,-4,23.0,25.3,2.1,22.8,25.9,2.2,5.73,2.01,2.4,27.1
2015-07-31 00:41:00,0.0,1.88227,0.00045,384.786,0.152,0.9246,0.0040,140.005,45.000,34445.36570,1.89989,389.179,32.460,45.068,45.000,0.00,0.32,-270.84,-270.65,-7,999,-5,23.0,25.9,2.4,22.8,26.5,2.6,5.43,2.06,-1.3,27.2
2015-07-31 00:42:00,0.0,1.88178,0.00053,384.879,0.264,0.9266,0.0026,140.001,45.000,34446.86636,1.89954,389.291,32.456,45.068,45.000,0.00,0.10,-272.73,-272.79,-7,998,-5,23.0,25.9,2.4,22.8,26.7,2.6,5.73,1.88,2.4,27.2
2015-07-31 00:43:00,0.0,1.88025,0.00039,385.129,0.180,0.9209,0.0016,139.997,45.000,34449.15605,1.89783,389.522,32.462,45.068,45.000,0.00,0.10,-272.73,-272.79,-7,999,-5,23.0,25.7,2.3,22.8,26.5,2.5,5.73,1.94,2.4,27.1
2015-07-31 00:44:00,0.0,1.88053,0.00030,385.059,0.148,0.9183,0.0026,140.000,45.000,34448.40644,1.89799,389.440,32.449,45.068,45.000,0.00,0.10,-272.73,-272.79,-7,999,-5,23.0,25.7,2.3,22.8,26.4,2.5,5.73,2.02,2.4,27.2
2015-07-31 00:45:00,0.0,1.88051,0.00037,385.082,0.120,0.9230,0.0024,139.999,45.000,34446.46328,1.89813,389.493,32.460,45.068,45.000,0.00,0.10,-272.74,-272.80,-7,999,-4,23.0,25.8,2.4,22.8,26.5,2.6,5.73,1.99,2.4,27.2
2015-07-31 00:46:00,0.0,1.88035,0.00028,385.093,0.150,0.9182,0.0028,139.998,45.000,34446.79516,1.89786,389.463,32.476,45.068,45.000,0.00,0.10,-272.73,-272.79,-6,998,-5,23.0,25.6,2.3,22.8,26.4,2.5,5.73,1.90,2.4,27.1
2015-07-31 00:47:00,0.0,1.88028,0.00034,385.085,0.119,0.9178,0.0028,139.996,45.000,34445.74840,1.89775,389.469,32.447,45.068,45.000,0.00,0.10,-272.73,-272.79,-7,999,-5,23.0,25.6,2.3,22.8,26.4,2.5,5.73,1.89,2.4,27.1
2015-07-31 00:48:00,0.0,1.88048,0.00039,384.886,0.124,0.9169,0.0016,140.001,45.000,34445.48728,1.89798,389.258,32.438,45.068,45.000,0.00,0.10,-272.73,-272.79,-8,999,-5,23.0,25.6,2.3,22.8,26.4,2.5,5.73,1.97,2.4,27.1
2015-07-31 00:49:00,0.0,1.88020,0.00036,385.231,0.113,0.9231,0.0030,140.002,45.000,34447.19949,1.89782,389.630,32.438,45.068,45.000,0.00,0.10,-272.73,-272.80,-7,999,-5,23.0,25.8,2.4,22.8,26.5,2.6,5.73,2.02,2.4,27.2
2015-07-31 00:50:00,0.0,1.88004,0.00038,385.149,0.070,0.9274,0.0025,140.000,45.000,34446.39037,1.89768,389.574,32.438,45.068,45.000,0.00,0.10,-272.73,-272.79,-7,999,-5,23.0,25.9,2.4,22.8,26.7,2.7,5.73,1.96,2.4,27.2
2015-07-31 00:51:00,0.0,1.88022,0.00042,385.207,0.106,0.9200,0.0017,139.998,45.000,34444.48803,1.89777,389.593,32.438,45.068,45.000,0.00,0.10,-272.73,-272.79,-7,999,-5,23.0,25.7,2.3,22.8,26.5,2.6,5.73,1.88,2.4,27.2
2015-07-31 00:52:00,0.0,1.88004,0.00030,385.007,0.123,0.9195,0.0023,139.997,45.000,34444.96394,1.89756,389.404,32.450,45.068,45.000,0.00,0.10,-272.73,-272.80,-7,998,-5,23.0,25.7,2.3,22.8,26.4,2.5,5.73,1.90,2.4,27.2
2015-07-31 00:53:00,0.0,1.88028,0.00043,385.139,0.122,0.9211,0.0021,139.997,45.000,34445.09679,1.89780,389.521,32.457,45.068,45.000,0.00,0.10,-272.73,-272.79,-6,999,-5,23.0,25.7,2.3,22.8,26.5,2.6,5.73,2.00,2.4,27.1
2015-07-31 00:54:00,0.0,1.87993,0.00040,385.188,0.104,0.9262,0.0036,139.995,45.000,34447.40957,1.89761,389.604,32.474,45.068,45.000,0.00,0.10,-272.73,-272.79,-7,999,-5,23.0,25.9,2.4,22.8,26.6,2.6,5.73,2.01,2.4,27.2
2015-07-31 00:55:00,0.0,1.87970,0.00037,385.100,0.100,0.9302,0.0016,140.002,45.000,34452.36950,1.89742,389.550,32.458,45.068,45.000,0.00,0.10,-272.73,-272.80,-7,999,-5,23.0,26.0,2.5,22.8,26.8,2.7,5.73,1.94,2.4,27.2
2015-07-31 00:56:00,0.0,1.87967,0.00030,385.027,0.129,0.9292,0.0022,139.996,45.000,34448.58106,1.89739,389.451,32.457,45.068,45.000,0.00,0.10,-272.73,-272.79,-7,998,-5,23.0,25.9,2.5,22.8,26.7,2.7,5.73,1.88,2.4,27.1
2015-07-31 00:57:00,0.0,1.87977,0.00032,385.061,0.108,0.9279,0.0023,139.999,45.000,34447.35771,1.89745,389.486,32.453,45.068,45.000,0.00,0.10,-272.73,-272.78,-7,999,-5,23.1,25.9,2.5,22.8,26.7,2.7,5.73,1.93,2.4,27.1
2015-07-31 00:58:00,0.0,1.87942,0.00041,385.157,0.099,0.9332,0.0020,140.001,45.000,34448.36682,1.89720,389.610,32.455,45.068,45.000,0.00,0.10,-272.73,-272.79,-7,999,-5,23.0,26.1,2.5,22.8,26.8,2.7,5.73,2.01,2.4,27.1
2015-07-31 00:59:00,0.0,1.87918,0.00031,385.060,0.134,0.9368,0.0024,140.001,45.000,34447.19795,1.89704,389.531,32.458,45.068,45.000,0.00,0.10,-272.73,-272.79,-7,999,-4,23.0,26.2,2.6,22.8,26.9,2.8,5.73,2.00,2.4,27.2
2015-07-31 01:00:00,0.0,1.87939,0.00045,384.907,0.148,0.9377,0.0016,139.996,45.000,34444.93997,1.89726,389.397,32.465,45.068,45.000,0.00,0.10,-272.72,-272.78,-7,999,-5,23.0,26.2,2.6,22.9,27.0,2.8,5.73,1.91,2.4,27.1
2015-07-31 01:01:00,0.0,1.87949,0.00045,384.795,0.154,0.9428,0.0019,140.002,45.000,34446.81289,1.89744,389.283,32.450,45.068,45.000,0.00,0.10,-272.72,-272.79,-7,999,-5,23.1,26.3,2.7,22.8,27.1,2.9,5.73,1.88,2.4,27.1
2015-07-31 01:02:00,0.0,1.87952,0.00045,384.986,0.108,0.9444,0.0022,139.999,45.000,34446.15273,1.89747,389.489,32.451,45.068,45.000,0.00,0.10,-272.73,-272.80,-7,999,-5,23.1,26.4,2.7,22.8,27.2,2.9,5.73,1.96,2.4,27.1
2015-07-31 01:03:00,0.0,1.87911,0.00030,384.853,0.158,0.9508,0.0033,139.999,45.000,34445.74703,1.89733,389.396,32.469,45.068,45.000,0.00,0.10,-272.73,-272.79,-7,999,-5,23.1,26.6,2.8,22.8,27.3,3.0,5.73,2.02,2.4,27.1
2015-07-31 01:04:00,0.0,1.87911,0.00039,384.901,0.143,0.9492,0.0038,139.998,45.000,34447.64792,1.89716,389.426,32.465,45.068,45.000,0.00,0.10,-272.73,-272.79,-7,998,-5,23.0,26.5,2.8,22.8,27.4,3.0,5.73,1.97,2.4,27.1
2015-07-31 01:05:00,0.0,1.87946,0.00038,384.685,0.112,0.9491,0.0024,140.000,45.000,34449.76045,1.89756,389.220,32.448,45.068,45.000,0.00,0.10,-272.73,-272.80,-6,1000,-4,23.1,26.6,2.8,22.8,27.3,3.0,5.73,1.89,2.4,27.1
2015-07-31 01:06:00,0.0,1.87886,0.00039,384.539,0.235,0.9542,0.0024,139.998,45.000,34451.70713,1.89706,389.099,32.455,45.068,45.000,0.00,0.10,-272.73,-272.79,-7,999,-5,23.1,26.7,2.9,22.9,27.5,3.1,5.73,1.89,2.4,27.2
2015-07-31 01:07:00,0.0,1.87886,0.00024,384.490,0.260,0.9633,0.0037,140.001,45.000,34452.22737,1.89722,389.071,32.463,45.068,45.000,0.00,0.10,-272.73,-272.78,-7,999,-5,23.1,27.0,3.1,22.9,27.7,3.2,5.73,1.97,2.4,27.1
2015-07-31 01:08:00,0.0,1.87831,0.00053,384.490,0.215,0.9812,0.0052,140.000,45.000,34452.64197,1.89706,389.177,32.480,45.068,45.000,0.00,0.10,-272.74,-272.79,-7,999,-5,23.1,27.6,3.3,22.9,28.2,3.5,5.73,2.01,2.4,27.2
2015-07-31 01:09:00,0.0,1.87797,0.00052,384.461,0.242,0.9824,0.0046,140.000,45.000,34453.41039,1.89672,389.132,32.490,45.068,45.000,0.00,0.10,-272.73,-272.79,-7,999,-5,23.1,27.4,3.3,22.9,28.4,3.6,5.73,1.96,2.4,27.1
2015-07-31 01:10:00,0.0,1.87811,0.00035,384.472,0.373,0.9613,0.0065,139.998,45.000,34453.41363,1.89643,389.076,32.494,45.068,45.000,0.00,0.10,-272.72,-272.78,-7,999,-5,23.1,26.8,2.9,22.9,27.7,3.2,5.73,1.88,2.4,27.1
2015-07-31 01:11:00,0.0,1.87823,0.00035,384.563,0.103,0.9443,0.0051,140.002,45.000,34453.07077,1.89626,389.061,32.494,45.068,45.000,0.00,0.10,-272.72,-272.79,-7,998,-5,23.1,26.3,2.7,22.9,27.2,3.0,5.73,1.91,2.4,27.1
2015-07-31 01:12:00,0.0,1.87829,0.00029,384.411,0.139,0.9449,0.0041,140.000,45.000,34452.75244,1.89627,388.916,32.492,45.068,45.000,0.00,0.10,-272.73,-272.80,-7,999,-5,23.1,26.4,2.7,22.9,27.1,3.0,5.73,1.99,2.4,27.1
2015-07-31 01:13:00,0.0,1.87834,0.00035,384.620,0.176,0.9488,0.0025,139.999,45.000,34451.82975,1.89640,389.135,32.492,45.068,45.000,0.00,0.10,-272.73,-272.79,-7,999,-5,23.1,26.4,2.8,22.9,27.3,3.0,5.73,2.01,2.4,27.1
2015-07-31 01:14:00,0.0,1.87891,0.00034,384.905,0.182,0.9295,0.0044,139.999,45.000,34452.28751,1.89659,389.335,32.497,45.068,45.000,0.00,0.10,-272.73,-272.79,-7,999,-5,23.1,25.9,2.4,22.9,26.8,2.8,5.73,1.93,2.4,27.2
2015-07-31 01:15:00,0.0,1.87945,0.00050,385.238,0.114,0.9137,0.0077,139.997,45.000,34450.35217,1.89686,389.592,32.499,45.068,45.000,0.00,0.10,-272.73,-272.79,-7,999,-5,23.1,25.3,2.1,22.9,26.3,2.5,5.73,1.88,2.4,27.2
2015-07-31 01:16:00,0.0,1.87969,0.00041,384.991,0.154,0.9006,0.0039,140.002,45.000,34449.79764,1.89681,389.291,32.503,45.068,45.000,0.00,0.10,-272.73,-272.79,-7,999,-5,23.1,25.0,2.0,22.9,25.8,2.2,5.73,1.93,2.4,27.2
2015-07-31 01:17:00,0.0,1.87964,0.00045,385.101,0.207,0.9084,0.0042,140.000,45.000,34449.42363,1.89693,389.426,32.518,45.068,45.000,0.00,0.10,-272.72,-272.79,-7,999,-5,23.1,25.2,2.1,22.9,25.9,2.3,5.73,2.01,2.4,27.2
2015-07-31 01:18:00,0.0,1.87998,0.00030,385.164,0.151,0.9059,0.0025,139.998,45.000,34448.66894,1.89720,389.487,32.517,45.068,45.000,0.00,0.10,-272.73,-272.79,-7,999,-5,23.1,25.2,2.1,22.9,26.0,2.3,5.73,2.00,2.4,27.2
2015-07-31 01:19:00,0.0,1.87991,0.00031,385.180,0.139,0.8977,0.0034,139.999,45.000,34450.33739,1.89705,389.467,32.514,45.068,45.000,0.00,0.10,-272.74,-272.79,-7,999,-5,23.1,24.9,1.9,22.9,25.7,2.2,5.73,1.91,2.4,27.2
2015-07-31 01:20:00,0.0,1.88012,0.00032,385.213,0.119,0.8935,0.0019,140.002,45.000,34449.94248,1.89715,389.472,32.500,45.068,45.000,0.00,0.10,-272.73,-272.79,-7,999,-5,23.1,24.8,1.9,22.9,25.5,2.1,5.73,1.88,2.4,27.2
2015-07-31 01:21:00,0.0,1.87996,0.00031,384.891,0.114,0.8975,0.0043,140.002,45.000,34450.40152,1.89702,389.159,32.500,45.068,45.000,0.00,0.10,-272.73,-272.79,-7,999,-5,23.1,25.0,2.0,22.9,25.6,2.2,5.73,1.95,2.4,27.2
2015-07-31 01:22:00,0.0,1.87950,0.00031,385.072,0.272,0.9070,0.0025,140.001,45.000,34451.35382,1.89679,389.396,32.500,45.068,45.000,0.00,0.10,-272.74,-272.79,-7,999,-5,23.1,25.2,2.1,22.9,25.9,2.3,5.73,2.02,2.4,27.2
2015-07-31 01:23:00,0.0,1.87911,0.00035,384.999,0.194,0.9053,0.0023,140.003,45.000,34451.11246,1.89635,389.326,32.505,45.068,45.000,0.00,0.10,-272.73,-272.79,-6,999,-5,23.1,25.2,2.1,22.9,25.9,2.3,5.73,1.98,2.4,27.2
2015-07-31 01:24:00,0.0,1.87880,0.00053,384.897,0.163,0.9114,0.0064,139.999,45.000,34452.06938,1.89616,389.242,32.503,45.068,45.000,0.00,0.10,-272.73,-272.78,-7,999,-5,23.1,25.4,2.2,22.9,26.0,2.4,5.73,1.89,2.4,27.1
2015-07-31 01:25:00,0.0,1.87866,0.00046,385.079,0.245,0.9232,0.0021,140.001,45.000,34453.65106,1.89625,389.462,32.500,45.068,45.000,0.00,0.10,-272.73,-272.79,-7,999,-5,23.1,25.7,2.3,22.9,26.4,2.6,5.73,1.89,2.4,27.2
2015-07-31 01:26:00,0.0,1.87889,0.00045,384.850,0.211,0.9208,0.0041,139.998,45.000,34451.49573,1.89640,389.252,32.501,45.068,45.000,0.00,0.10,-272.73,-272.80,-7,999,-5,23.1,25.6,2.3,22.9,26.4,2.5,5.73,1.98,2.4,27.2
2015-07-31 01:27:00,0.0,1.87893,0.00046,384.950,0.137,0.9188,0.0042,140.000,45.000,34452.46004,1.89643,389.320,32.500,45.068,45.000,0.00,0.10,-272.72,-272.78,-7,999,-5,23.1,25.6,2.3,22.9,26.3,2.5,5.73,2.02,2.4,27.1
2015-07-31 01:28:00,0.0,1.87854,0.00047,385.106,0.099,0.9250,0.0018,139.998,45.000,34451.62544,1.89617,389.521,32.500,45.068,45.000,0.00,0.10,-272.73,-272.79,-7,999,-5,23.1,25.8,2.4,22.9,26.5,2.6,5.73,1.95,2.4,27.2
2015-07-31 01:29:00,0.0,1.87895,0.00034,384.995,0.103,0.9202,0.0023,140.001,45.000,34453.78992,1.89646,389.384,32.502,45.068,45.000,0.00,0.10,-272.73,-272.80,-7,999,-5,23.1,25.6,2.3,22.9,26.4,2.5,5.73,1.88,2.4,27.1
2015-07-31 01:30:00,0.0,1.87850,0.00026,385.030,0.117,0.9265,0.0027,139.998,45.000,34453.72451,1.89616,389.456,32.500,45.068,45.000,0.00,0.10,-272.73,-272.79,-7,999,-5,23.1,25.8,2.4,22.9,26.5,2.6,5.73,1.91,2.4,27.2
2015-07-31 01:31:00,0.0,1.87849,0.00034,385.034,0.166,0.9273,0.0023,139.999,45.000,34453.09221,1.89615,389.447,32.509,45.068,45.000,0.00,0.10,-272.73,-272.79,-7,999,-5,23.1,25.8,2.5,22.9,26.6,2.7,5.73,2.00,2.4,27.1
2015-07-31 01:32:00,0.0,1.87840,0.00041,385.009,0.124,0.9322,0.0021,139.999,45.000,34454.31530,1.89615,389.453,32.511,45.068,45.000,0.00,0.10,-272.73,-272.79,-7,999,-5,23.1,26.0,2.5,22.9,26.7,2.7,5.73,2.01,2.4,27.2
2015-07-31 01:33:00,0.0,1.87822,0.00032,384.866,0.312,0.9319,0.0019,139.999,45.000,34454.95499,1.89594,389.308,32.506,45.068,45.000,0.00,0.10,-272.73,-272.79,-7,999,-5,23.1,25.9,2.5,22.9,26.7,2.7,5.73,1.93,2.4,27.1
2015-07-31 01:34:00,0.0,1.87826,0.00028,385.091,0.148,0.9386,0.0052,140.002,45.000,34453.49867,1.89616,389.574,32.504,45.068,45.000,0.00,0.10,-272.73,-272.79,-7,999,-5,23.1,26.2,2.7,22.9,26.8,2.8,5.73,1.88,2.4,27.1
2015-07-31 01:35:00,0.0,1.87809,0.00039,384.502,0.308,0.9417,0.0027,140.000,45.000,34453.24540,1.89601,389.011,32.504,45.068,45.000,0.00,0.10,-272.73,-272.80,-7,999,-5,23.1,26.2,2.7,22.9,27.0,2.9,5.73,1.93,2.4,27.2
2015-07-31 01:36:00,0.0,1.87791,0.00039,384.862,0.207,0.9515,0.0061,140.003,45.000,34456.98669,1.89606,389.383,32.503,45.068,45.000,0.00,0.10,-272.74,-272.79,-7,999,-5,23.1,26.6,2.9,22.9,27.2,3.0,5.73,2.01,2.4,27.2
2015-07-31 01:37:00,0.0,1.87737,0.00034,384.699,0.143,0.9632,0.0025,140.000,45.000,34455.29466,1.89575,389.299,32.506,45.068,45.000,0.00,0.10,-272.73,-272.79,-7,999,-5,23.1,26.9,3.0,22.9,27.7,3.2,5.73,2.01,2.5,27.2
2015-07-31 01:38:00,0.0,1.87763,0.00043,384.845,0.143,0.9551,0.0028,140.002,45.000,34454.30174,1.89577,389.401,32.525,45.068,45.000,0.00,0.10,-272.73,-272.79,-7,999,-5,23.1,26.7,2.9,22.9,27.4,3.1,5.73,1.91,2.5,27.2
2015-07-31 01:39:00,0.0,1.87697,0.00033,384.526,0.188,0.9672,0.0031,140.004,45.000,34455.68448,1.89545,389.142,32.543,45.068,45.000,0.00,0.10,-272.73,-272.80,-7,999,-5,23.1,27.0,3.1,22.9,27.7,3.3,5.73,1.87,2.4,27.2
2015-07-31 01:40:00,0.0,1.87697,0.00042,384.793,0.101,0.9702,0.0027,139.998,45.000,34453.83925,1.89543,389.418,32.555,45.068,45.000,0.00,0.10,-272.73,-272.79,-8,999,-5,23.1,27.1,3.2,22.9,27.8,3.3,5.73,1.95,2.4,27.2
2015-07-31 01:41:00,0.0,1.87722,0.00046,384.893,0.163,0.9683,0.0069,139.999,45.000,34453.26890,1.89572,389.514,32.563,45.068,45.000,0.00,0.10,-272.72,-272.79,-7,999,-5,23.1,26.9,3.0,22.9,27.9,3.3,5.73,2.02,2.5,27.2
2015-07-31 01:42:00,0.0,1.87751,0.00043,385.087,0.123,0.9449,0.0064,139.999,45.000,34453.05850,1.89544,389.600,32.563,45.068,45.000,0.00,0.10,-272.73,-272.79,-7,999,-5,23.1,26.2,2.7,22.9,27.2,3.0,5.73,1.99,2.5,27.2
2015-07-31 01:43:00,0.0,1.87809,0.00031,385.110,0.232,0.9333,0.0022,140.005,45.000,34454.72296,1.89585,389.562,32.564,45.068,45.000,0.00,0.10,-272.73,-272.79,-7,999,-5,23.1,25.9,2.5,22.9,26.7,2.7,5.73,1.89,2.4,27.2
2015-07-31 01:44:00,0.0,1.87763,0.00044,385.177,0.080,0.9341,0.0048,140.001,45.000,34455.24144,1.89544,389.644,32.563,45.068,45.000,0.00,0.10,-272.72,-272.79,-7,999,-5,23.1,25.9,2.5,22.9,26.7,2.8,5.73,1.88,2.5,27.1
2015-07-31 01:45:00,0.0,1.87776,0.00042,385.056,0.151,0.9200,0.0035,140.005,45.000,34458.50872,1.89530,389.440,32.564,45.068,45.000,0.00,0.10,-272.73,-272.79,-7,999,-5,23.1,25.5,2.3,22.9,26.3,2.6,5.73,1.97,2.4,27.2
2015-07-31 01:46:00,0.0,1.87745,0.00046,385.013,0.080,0.9304,0.0039,139.999,45.000,34456.48691,1.89513,389.455,32.563,45.068,45.000,0.00,0.10,-272.73,-272.80,-7,999,-5,23.1,25.9,2.5,22.9,26.6,2.7,5.73,2.02,2.5,27.2
2015-07-31 01:47:00,0.0,1.87699,0.00035,384.814,0.166,0.9414,0.0028,140.001,45.000,34456.46968,1.89494,389.310,32.564,45.068,45.000,0.00,0.10,-272.72,-272.79,-8,999,-5,23.1,26.2,2.7,22.9,26.9,2.9,5.73,1.96,2.5,27.2
2015-07-31 01:48:00,0.0,1.87676,0.00055,384.719,0.142,0.9570,0.0067,140.000,45.000,34455.21870,1.89499,389.277,32.563,45.068,45.000,0.00,0.10,-272.73,-272.79,-7,999,-5,23.1,26.7,2.9,22.9,27.4,3.1,5.73,1.88,2.5,27.2